Bangor, ME

5:07 PM EDT on July 27, 2017 (GMT -0400)
Bangor International

Weather History for KBGR - December, 2012

Change the Weather History Date:

Monday, December 24, 2012

  Actual Average Record
Temperature  
Mean Temperature 21 °F 21 °F  
Max Temperature 28 °F 31 °F 56 °F (2003)
Min Temperature 13 °F 12 °F -16 °F (1943)
Degree Days  
Heating Degree Days 44 44  
Month to date heating degree days 861 936  
Since 1 July heating degree days 2476 2605  
Cooling Degree Days 0 0  
Month to date cooling degree days 0 0  
Year to date cooling degree days 395 318  
Moisture  
Dew Point 11 °F    
Average Humidity 67    
Maximum Humidity 88    
Minimum Humidity 46    
Precipitation  
Precipitation 0.00 in 0.11 in 2.18 in (1952)
Month to date precipitation 3.06 2.83  
Year to date precipitation 41.77 41.28  
Snow  
Snow 0.00 in 0.50 in 8.30 in (1961)
Month to date snowfall 5.4 10.5  
Since 1 July snowfall 9.4 12.9  
Snow Depth 0.00 in    
Sea Level Pressure  
Sea Level Pressure 29.96 in    
Wind  
Wind Speed 4 mph (WNW)    
Max Wind Speed 16 mph    
Max Gust Speed 23 mph    
Visibility 10 miles    
Events      
T = Trace of Precipitation, MM = Missing Value Source: NWS Daily Summary

Daily Weather History Graph

Daily Weather History Graph

Search for Another Location

Airport or City:

Trip Planner

Search our weather history database for the weather conditions in past years. The results will help you decide how hot, cold, wet, or windy it might be!

Date:

Astronomy

Dec. 24, 2012 Rise Set
Actual Time 7:11 AM EST 3:59 PM EST
Civil Twilight 6:37 AM EST 4:32 PM EST
Nautical Twilight 6:00 AM EST 5:09 PM EST
Astronomical Twilight 5:24 AM EST 5:45 PM EST
Moon 1:27 PM EST (12/24) 3:43 AM EST (12/24)
Length of Visible Light 9h 55m
Length of Day
8h 47m
Waxing Gibbous, 88% of the Moon is Illuminated
Dec 24
Waxing Gibbous
Dec 28
Full
Jan 4
Last Quarter
Jan 11
New
Jan 18
First Quarter

Hourly Weather History & Observations

Time (EST) Temp. Windchill Dew Point Humidity Pressure Visibility Wind Dir Wind Speed Gust Speed Precip Events Conditions
12:53 AM 21.9 °F - 17.1 °F 82% 29.77 in 10.0 mi Calm Calm - N/A   Mostly Cloudy
1:53 AM 21.9 °F 17.2 °F 16.0 °F 78% 29.79 in 10.0 mi WNW 3.5 mph - N/A   Partly Cloudy
2:53 AM 23.0 °F 17.0 °F 16.0 °F 74% 29.81 in 10.0 mi WNW 4.6 mph - N/A   Partly Cloudy
3:53 AM 21.9 °F - 15.1 °F 75% 29.83 in 10.0 mi Calm Calm - N/A   Partly Cloudy
4:53 AM 19.0 °F 11.1 °F 15.1 °F 85% 29.85 in 10.0 mi NW 5.8 mph - N/A   Clear
5:53 AM 19.0 °F 9.0 °F 12.0 °F 74% 29.89 in 10.0 mi WNW 8.1 mph - N/A   Clear
6:53 AM 18.0 °F 11.1 °F 10.0 °F 71% 29.93 in 10.0 mi WNW 4.6 mph - N/A   Partly Cloudy
7:53 AM 19.0 °F 9.0 °F 9.0 °F 65% 29.95 in 10.0 mi WNW 8.1 mph - N/A   Clear
8:53 AM 21.0 °F 13.4 °F 10.0 °F 63% 29.97 in 10.0 mi West 5.8 mph - N/A   Clear
9:53 AM 23.0 °F 14.7 °F 10.9 °F 60% 30.00 in 10.0 mi WSW 6.9 mph - N/A   Partly Cloudy
10:53 AM 25.0 °F 15.5 °F 10.0 °F 53% 29.98 in 10.0 mi West 9.2 mph - N/A   Partly Cloudy
11:53 AM 26.1 °F 16.8 °F 10.0 °F 51% 29.96 in 10.0 mi West 9.2 mph 18.4 mph N/A   Partly Cloudy
12:53 PM 26.1 °F 18.4 °F 10.0 °F 51% 29.96 in 10.0 mi WSW 6.9 mph - N/A   Partly Cloudy
1:53 PM 28.0 °F 21.7 °F 10.0 °F 47% 29.97 in 10.0 mi WNW 5.8 mph - N/A   Partly Cloudy
2:53 PM 27.0 °F 16.7 °F 9.0 °F 47% 30.00 in 10.0 mi West 11.5 mph 17.3 mph N/A   Partly Cloudy
3:53 PM 26.1 °F 19.4 °F 9.0 °F 49% 30.01 in 10.0 mi West 5.8 mph - N/A   Partly Cloudy
4:53 PM 23.0 °F 18.4 °F 10.0 °F 58% 30.03 in 10.0 mi West 3.5 mph - N/A   Partly Cloudy
5:53 PM 23.0 °F 18.4 °F 10.0 °F 58% 30.04 in 10.0 mi WSW 3.5 mph - N/A   Clear
6:53 PM 18.0 °F - 10.9 °F 74% 30.05 in 10.0 mi Calm Calm - N/A   Clear
7:53 PM 19.9 °F 13.4 °F 10.9 °F 68% 30.05 in 10.0 mi West 4.6 mph - N/A   Clear
8:53 PM 16.0 °F - 10.9 °F 81% 30.06 in 10.0 mi Calm Calm - N/A   Partly Cloudy
9:53 PM 15.1 °F - 12.0 °F 88% 30.07 in 10.0 mi Calm Calm - N/A   Partly Cloudy
10:53 PM 15.1 °F - 10.9 °F 84% 30.07 in 10.0 mi Calm Calm - N/A   Partly Cloudy
11:53 PM 15.1 °F 9.4 °F 10.9 °F 84% 30.06 in 10.0 mi North 3.5 mph - N/A   Scattered Clouds